User: anonymous   Login
Location: Houston
(29.7630°N, 95.3630°W)
Time: 21:20:23
(UTC-05:00)
Language:

Saudisat 1A - Orbit

View from above orbital plane
View from above orbital plane
View from above satellite
View from above satellite

Ground track
Ground track

The orbit data is extracted from the following two-line orbital elements,

1 26546U 00057B   16147.05514786  .00000304  00000-0  47062-4 0  9990
2 26546  64.5539 106.7535 0048466 272.0508  87.5052 14.90225200848963
Epoch (UTC): 26 May 2016 01:19:24
Eccentricity: 0.0048466
inclination: 64.5539°
perigee height: 563 km
apogee height: 631 km
right ascension of ascending node: 106.7535°
argument of perigee: 272.0508°
revolutions per day: 14.90225200
mean anomaly at epoch: 87.5052°
orbit number at epoch: 84896

The dashed part of the orbit path shows where the satellite is in the earth's shadow,  

DLR